EW6466 Weather Reports


time (UTC)temp
C
wind
direction
speed
KPH
gust
KPH
rain 1hr
cm
rain 24hr
cm
rain mn
cm
humidity
%
barometer
mb
20260510094515 21 178 4.8 14.5 0.00 0.00 0.00 83 1009.1
20260510093015 21 164 6.4 12.9 0.00 0.00 0.00 82 1008.8
20260510091612 21 171 6.4 12.9 0.00 0.00 0.00 82 1009.0
20260510090011 21 160 4.8 11.3 0.00 0.00 0.00 82 1009.0
20260510084512 21 153 8.0 14.5 0.00 0.00 0.00 81 1008.9
20260510083010 22 188 3.2 8.0 0.00 0.00 0.00 80 1008.8
20260510081509 22 186 3.2 9.7 0.00 0.00 0.00 79 1008.9
20260510080008 22 184 3.2 9.7 0.00 0.00 0.00 78 1008.9
20260510074508 22 184 3.2 9.7 0.00 0.00 0.00 77 1008.8
20260510073009 22 178 1.6 11.3 0.00 0.00 0.00 76 1008.8
20260510071508 22 164 6.4 16.1 0.00 0.00 0.00 76 1008.9
20260510070004 22 178 3.2 8.0 0.00 0.00 0.00 76 1009.0
20260510064509 22 250 3.2 6.4 0.00 0.00 0.00 76 1009.2
20260510063003 22 250 1.6 6.4 0.00 0.00 0.00 77 1009.2
20260510061502 21 253 4.8 11.3 0.00 0.00 0.00 80 1009.3
20260510060100 20 179 3.2 6.4 0.00 0.00 0.00 80 1009.2
20260510054601 21 177 0.0 0.0 0.00 0.00 0.00 78 1009.1
20260510053054 22 177 0.0 3.2 0.00 0.00 0.00 75 1009.1
20260510051553 22 177 0.0 1.6 0.00 0.00 0.00 73 1009.0
20260510050047 23 177 1.6 4.8 0.00 0.00 0.00 72 1008.9
20260510044545 24 177 1.6 4.8 0.00 0.00 0.00 70 1008.8
20260510043045 25 177 0.0 8.0 0.00 0.00 0.00 68 1008.8
20260510041544 25 175 3.2 11.3 0.00 0.00 0.00 67 1008.7
20260510040047 25 208 1.6 8.0 0.00 0.00 0.00 67 1008.6
20260510034601 25 202 8.0 14.5 0.00 0.00 0.00 66 1008.4
20260510033048 25 229 4.8 11.3 0.00 0.00 0.00 66 1008.3
20260510031542 25 215 3.2 16.1 0.00 0.00 0.00 67 1008.1
20260510030041 24 205 3.2 8.0 0.00 0.00 0.00 67 1008.0
20260510024542 25 205 1.6 4.8 0.00 0.00 0.00 65 1007.9
20260510023041 26 205 0.0 0.0 0.00 0.00 0.00 62 1007.6
20260510021541 27 205 0.0 1.6 0.00 0.00 0.00 59 1007.3
20260510020040 27 205 0.0 6.4 0.00 0.00 0.00 56 1007.1
20260510014543 28 205 1.6 9.7 0.00 0.00 0.00 54 1006.9
20260510013039 28 207 0.0 6.4 0.00 0.00 0.00 53 1006.6
20260510011538 28 207 3.2 11.3 0.00 0.00 0.00 52 1006.5
20260510010040 29 209 4.8 11.3 0.00 0.00 0.00 50 1006.4
20260510004536 30 211 3.2 11.3 0.00 0.00 0.00 48 1006.3
20260510003037 30 220 6.4 12.9 0.00 0.00 0.00 47 1006.2
20260510001535 31 205 3.2 9.7 0.00 0.00 0.00 44 1006.1
20260510000033 32 166 4.8 11.3 0.00 0.00 0.00 42 1006.1
20260509234533 33 254 1.6 4.8 0.00 0.00 0.00 38 1006.1
20260509233033 33 254 1.6 6.4 0.00 0.00 0.00 37 1006.0
20260509231534 32 209 0.0 3.2 0.00 0.00 0.00 39 1006.1
20260509230029 33 207 4.8 12.9 0.00 0.00 0.00 39 1006.1
20260509224529 33 174 8.0 16.1 0.00 0.00 0.00 38 1006.1
20260509223028 33 253 3.2 17.7 0.00 0.00 0.00 39 1006.2
20260509221526 34 185 6.4 17.7 0.00 0.00 0.00 39 1006.2
20260509220037 33 164 4.8 14.5 0.00 0.00 0.00 39 1006.3
20260509214521 33 182 9.7 22.5 0.00 0.00 0.00 39 1006.4
20260509213020 33 325 1.6 9.7 0.00 0.00 0.00 38 1006.6
20260509211519 34 228 6.4 14.5 0.00 0.00 0.00 42 1006.8
20260509210014 33 192 4.8 17.7 0.00 0.00 0.00 42 1007.0
20260509204513 33 189 8.0 20.9 0.00 0.00 0.00 44 1007.3
20260509203023 33 236 9.7 19.3 0.00 0.00 0.00 42 1007.6
20260509201508 33 126 3.2 14.5 0.00 0.00 0.00 41 1007.8
20260509200004 33 201 6.4 19.3 0.00 0.00 0.00 43 1008.1
20260509194500 32 236 4.8 14.5 0.00 0.00 0.00 46 1008.2
20260509193103 32 250 3.2 11.3 0.00 0.00 0.00 48 1008.4
20260509191559 31 191 6.4 17.7 0.00 0.00 0.00 50 1008.6
20260509190057 32 147 6.4 16.1 0.00 0.00 0.00 49 1008.8
20260509184553 31 185 8.0 16.1 0.00 0.00 0.00 52 1009.1
20260509183102 30 223 6.4 16.1 0.00 0.00 0.00 53 1009.3
20260509181551 31 144 9.7 19.3 0.00 0.00 0.00 54 1009.5
20260509180047 30 152 6.4 16.1 0.00 0.00 0.00 54 1009.7
20260509174550 30 208 9.7 17.7 0.00 0.00 0.00 59 1009.9
20260509173045 29 228 9.7 16.1 0.00 0.00 0.00 59 1010.1
20260509171544 28 198 6.4 16.1 0.00 0.00 0.00 65 1010.1
20260509170038 28 164 6.4 17.7 0.00 0.00 0.00 67 1010.1
20260509164537 28 203 9.7 20.9 0.00 0.00 0.00 66 1010.1
20260509163044 27 184 4.8 12.9 0.00 0.00 0.00 70 1010.2
20260509161541 26 198 3.2 9.7 0.00 0.00 0.00 74 1010.4
20260509160028 25 199 6.4 16.1 0.00 0.00 0.00 79 1010.4
20260509154524 24 195 4.8 11.3 0.00 0.00 0.00 80 1010.5
20260509153040 23 192 6.4 14.5 0.00 0.00 0.00 82 1010.4
20260509151519 23 99 1.6 11.3 0.00 0.00 0.00 83 1010.5
20260509150024 23 51 3.2 6.4 0.00 0.00 0.00 84 1010.5
20260509144513 22 44 3.2 8.0 0.00 0.00 0.00 85 1010.7
20260509143009 21 39 0.0 4.8 0.00 0.00 0.00 86 1010.7
20260509141505 21 39 0.0 4.8 0.00 0.00 0.00 87 1010.9
20260509140002 21 39 1.6 9.7 0.00 0.00 0.00 87 1010.6
20260509134500 20 39 4.8 9.7 0.00 0.00 0.00 87 1010.7
20260509133059 20 39 0.0 4.8 0.00 0.00 0.00 87 1010.5
20260509131559 20 39 3.2 9.7 0.00 0.00 0.00 87 1010.6
20260509130057 20 40 1.6 6.4 0.00 0.00 0.00 88 1010.6
20260509124556 20 40 3.2 14.5 0.00 0.00 0.00 87 1010.5
20260509123118 20 28 11.3 17.7 0.00 0.00 0.00 87 1010.5
20260509121559 20 23 9.7 16.1 0.00 0.00 0.00 87 1010.6
20260509120054 20 27 12.9 19.3 0.00 0.00 0.00 88 1010.5
20260509114552 20 20 11.3 16.1 0.00 0.00 0.00 87 1010.4
20260509113050 20 355 6.4 12.9 0.00 0.00 0.00 88 1010.0
20260509111551 20 345 3.2 8.0 0.00 0.00 0.00 88 1009.6
20260509110048 20 344 4.8 8.0 0.00 0.00 0.00 87 1009.4
20260509104548 20 344 3.2 6.4 0.00 0.00 0.00 87 1009.3
20260509103053 20 344 3.2 6.4 0.00 0.00 0.00 87 1009.2
20260509101547 20 344 1.6 6.4 0.00 0.00 0.00 87 1009.1
20260509100051 20 343 4.8 9.7 0.00 0.00 0.00 87 1008.8